sat.trackr.live / text

‹ back to catalog

NAOS

NORAD 65317 · 2025-188C

PAYLOAD ACTIVE UNKNOWN

§ Identity

Operator
Country
LUXE
Launch date
2025-08-26
Launch site
AFWTR
Launch vehicle
Mass (kg)
RCS (m²)

External: N2YO · Heavens-Above · Gunter

§ Orbital elements

Epoch: 2026-05-25T04:09:22.498848Z

Period
93.59 min
Inclination
97.2033°
Eccentricity
0.0000742
Mean motion
15.38548395 rev/d
Perigee alt
449.9 km
Apogee alt
450.9 km
Semi-major
6,828.5 km
B*
1.3323e-4
RAAN
220.8908°
Arg perigee
234.9668°
Mean anomaly
125.1509°
Rev number
4,172

§ Raw data

NAOS1 65317U 25188C   26145.17317707  .00004988  00000+0  13323-3 0  99902 65317  97.2033 220.8908 0000742 234.9668 125.1509 15.38548395 41726

JSON: /api/v1/satellites/65317 · /tle

For live sub-satellite position, see the globe view (requires WebGL).

§ Visibility from observer

Set your observer location to see the next 7 days of passes ≥ 10°. The values pass through the URL so the page stays shareable.

No JS? Fill the form by hand. The geolocation button needs JavaScript.